Weather History for Bentonville, AR

Change the Weather History Date:

Monday, December 5, 2011

  Actual Average Record
Temperature  
Mean Temperature 32 °F -  
Max Temperature 35 °F 50 °F 74 °F (1956)
Min Temperature 28 °F 29 °F 15 °F (1978)
Degree Days  
Heating Degree Days 34    
Moisture  
Dew Point 25 °F    
Average Humidity 77    
Maximum Humidity 81    
Minimum Humidity 69    
Precipitation  
Precipitation 0.00 in - - ()
Sea Level Pressure  
Sea Level Pressure 30.20 in    
Wind  
Wind Speed 12 mph (NNE)    
Max Wind Speed 18 mph    
Max Gust Speed 23 mph    
Visibility 10 miles    
Events      
Averages and records for this station are not official NWS values.
T = Trace of Precipitation, MM = Missing Value Source: NWS Daily Summary

Daily Weather History Graph

Daily Weather History Graph

Search for Another Location

Airport:

Trip Planner

Search our weather history database for the weather conditions in past years. The results will help you decide how hot, cold, wet, or windy it might be!

Date:

Astronomy

Dec. 05, 2011 Rise Set
Actual Time 7:13 AM CST 5:01 PM CST
Civil Twilight 6:44 AM CST 5:30 PM CST
Nautical Twilight 6:12 AM CST 6:02 PM CST
Astronomical Twilight 5:41 AM CST 6:33 PM CST
Moon 1:54 PM CST (12/5) 2:41 AM CST (12/5)
Length of Visible Light 10h 45m
Length of Day
9h 48m
Waxing Gibbous, 80% of the Moon is Illuminated
Dec 5
Waxing Gibbous
Dec 10
Full
Dec 17
Last Quarter
Dec 24
New
Jan 1
First Quarter

Hourly Weather History & Observations

Time (CST) Temp. Windchill Dew Point Humidity Pressure Visibility Wind Dir Wind Speed Gust Speed Precip Events Conditions
12:15 AM 35.6 °F 27.5 °F 30.2 °F 81% 30.18 in 10.0 mi NNE 11.5 mph 16.1 mph N/A   Overcast
12:35 AM 35.6 °F 27.1 °F 28.4 °F 75% 30.18 in 10.0 mi NNE 12.7 mph - N/A   Overcast
12:55 AM 35.6 °F 26.2 °F 28.4 °F 75% 30.17 in 10.0 mi North 15.0 mph - N/A   Overcast
1:15 AM 33.8 °F 24.8 °F 28.4 °F 81% 30.17 in 10.0 mi NNE 12.7 mph - N/A   Overcast
1:35 AM 33.8 °F 26.4 °F 28.4 °F 81% 30.20 in 10.0 mi NNE 9.2 mph - N/A   Scattered Clouds
1:55 AM 33.8 °F 27.0 °F 28.4 °F 81% 30.21 in 10.0 mi NNE 8.1 mph - N/A   Mostly Cloudy
2:15 AM 33.8 °F 26.4 °F 26.6 °F 75% 30.19 in 10.0 mi NNE 9.2 mph - N/A   Overcast
2:35 AM 33.8 °F 25.8 °F 26.6 °F 75% 30.17 in 10.0 mi NNE 10.4 mph - N/A   Overcast
2:55 AM 33.8 °F 26.4 °F 26.6 °F 75% 30.16 in 10.0 mi NE 9.2 mph - N/A   Overcast
3:15 AM 33.8 °F 24.8 °F 26.6 °F 75% 30.14 in 10.0 mi NNE 12.7 mph - N/A   Overcast
3:35 AM 33.8 °F 25.3 °F 26.6 °F 75% 30.13 in 10.0 mi NNE 11.5 mph 17.3 mph N/A   Overcast
3:55 AM 32.0 °F 21.6 °F 26.6 °F 80% 30.11 in 10.0 mi NNE 15.0 mph 21.9 mph N/A   Mostly Cloudy
4:15 AM 32.0 °F 22.1 °F 26.6 °F 80% 30.12 in 10.0 mi NE 13.8 mph 23.0 mph N/A   Mostly Cloudy
4:35 AM 32.0 °F 22.5 °F 26.6 °F 80% 30.14 in 10.0 mi NNE 12.7 mph - N/A   Mostly Cloudy
5:15 AM 32.0 °F 24.2 °F 26.6 °F 80% 30.14 in 10.0 mi NNE 9.2 mph - N/A   Mostly Cloudy
5:35 AM 32.0 °F 23.0 °F 26.6 °F 80% 30.17 in 10.0 mi NNE 11.5 mph - N/A   Mostly Cloudy
5:55 AM 32.0 °F 21.2 °F 26.6 °F 80% 30.15 in 10.0 mi NNE 16.1 mph - N/A   Overcast
6:15 AM 30.2 °F 18.5 °F 24.8 °F 80% 30.14 in 10.0 mi North 17.3 mph 21.9 mph N/A   Mostly Cloudy
6:35 AM 30.2 °F 18.1 °F 24.8 °F 80% 30.14 in 10.0 mi North 18.4 mph 23.0 mph N/A   Scattered Clouds
6:55 AM 30.2 °F 19.3 °F 24.8 °F 80% 30.18 in 10.0 mi North 15.0 mph 20.7 mph N/A   Overcast
7:15 AM 30.2 °F 22.6 °F 24.8 °F 80% 30.22 in 10.0 mi North 8.1 mph - N/A   Overcast
7:35 AM 30.2 °F 20.8 °F 24.8 °F 80% 30.25 in 10.0 mi North 11.5 mph - N/A   Overcast
7:55 AM 30.2 °F 19.3 °F 24.8 °F 80% 30.25 in 10.0 mi North 15.0 mph - N/A   Overcast
8:15 AM 30.2 °F 21.3 °F 24.8 °F 80% 30.26 in 10.0 mi North 10.4 mph 19.6 mph N/A   Overcast
8:35 AM 30.2 °F 22.6 °F 24.8 °F 80% 30.26 in 10.0 mi North 8.1 mph - N/A   Overcast
8:55 AM 30.2 °F 20.2 °F 24.8 °F 80% 30.26 in 10.0 mi NNE 12.7 mph - N/A   Overcast
9:15 AM 30.2 °F 21.9 °F 24.8 °F 80% 30.28 in 10.0 mi North 9.2 mph - N/A   Overcast
9:35 AM 30.2 °F 20.8 °F 24.8 °F 80% 30.27 in 10.0 mi North 11.5 mph - N/A   Overcast
9:55 AM 30.2 °F 18.5 °F 24.8 °F 80% 30.26 in 10.0 mi North 17.3 mph - N/A   Overcast
10:15 AM 30.2 °F 19.8 °F 24.8 °F 80% 30.23 in 10.0 mi NNE 13.8 mph 20.7 mph N/A   Overcast
10:35 AM 30.2 °F 18.9 °F 24.8 °F 80% 30.23 in 10.0 mi North 16.1 mph 23.0 mph N/A   Mostly Cloudy
10:55 AM 32.0 °F 22.1 °F 24.8 °F 75% 30.23 in 10.0 mi North 13.8 mph 18.4 mph N/A   Mostly Cloudy
11:15 AM 32.0 °F 21.6 °F 24.8 °F 75% 30.22 in 10.0 mi NNE 15.0 mph - N/A   Mostly Cloudy
11:35 AM 33.8 °F 24.3 °F 24.8 °F 70% 30.21 in 10.0 mi North 13.8 mph 18.4 mph N/A   Overcast
11:55 AM 32.0 °F 22.1 °F 24.8 °F 75% 30.25 in 10.0 mi North 13.8 mph 19.6 mph N/A   Overcast
12:15 PM 30.2 °F 19.8 °F 23.0 °F 75% 30.24 in 10.0 mi North 13.8 mph 18.4 mph N/A   Overcast
12:35 PM 32.0 °F 23.6 °F 23.0 °F 69% 30.23 in 10.0 mi North 10.4 mph - N/A   Overcast
12:55 PM 30.2 °F 18.9 °F 23.0 °F 75% 30.22 in 10.0 mi North 16.1 mph 21.9 mph N/A   Overcast
1:15 PM 30.2 °F 18.9 °F 23.0 °F 75% 30.20 in 10.0 mi NNE 16.1 mph 20.7 mph N/A   Overcast
1:35 PM 30.2 °F 19.3 °F 23.0 °F 75% 30.21 in 10.0 mi North 15.0 mph 19.6 mph N/A   Overcast
1:55 PM 30.2 °F 20.2 °F 23.0 °F 75% 30.20 in 10.0 mi North 12.7 mph 20.7 mph N/A   Overcast
2:15 PM 30.2 °F 19.8 °F 23.0 °F 75% 30.19 in 10.0 mi North 13.8 mph - N/A   Overcast
2:35 PM 30.2 °F 19.8 °F 23.0 °F 75% 30.19 in 10.0 mi North 13.8 mph 21.9 mph N/A   Overcast
3:15 PM 30.2 °F 20.8 °F 23.0 °F 75% 30.18 in 10.0 mi North 11.5 mph - N/A   Overcast
3:35 PM 30.2 °F 21.9 °F 23.0 °F 75% 30.18 in 10.0 mi North 9.2 mph - N/A   Overcast
3:55 PM 30.2 °F 21.3 °F 23.0 °F 75% 30.20 in 10.0 mi North 10.4 mph - N/A   Overcast
4:15 PM 30.2 °F 19.8 °F 23.0 °F 75% 30.20 in 10.0 mi North 13.8 mph - N/A   Overcast
4:35 PM 30.2 °F 21.3 °F 23.0 °F 75% 30.21 in 10.0 mi North 10.4 mph - N/A   Overcast
4:55 PM 30.2 °F 20.8 °F 23.0 °F 75% 30.21 in 10.0 mi North 11.5 mph 16.1 mph N/A   Overcast
5:15 PM 30.2 °F 19.8 °F 21.2 °F 69% 30.22 in 10.0 mi North 13.8 mph - N/A   Overcast
5:35 PM 30.2 °F 19.8 °F 21.2 °F 69% 30.21 in 10.0 mi NNE 13.8 mph - N/A   Overcast
5:55 PM 30.2 °F 19.3 °F 21.2 °F 69% 30.21 in 10.0 mi NNE 15.0 mph - N/A   Overcast
6:15 PM 30.2 °F 20.2 °F 23.0 °F 75% 30.22 in 10.0 mi North 12.7 mph 18.4 mph N/A   Overcast
6:35 PM 30.2 °F 21.3 °F 21.2 °F 69% 30.23 in 10.0 mi NNE 10.4 mph 17.3 mph N/A   Overcast
6:55 PM 30.2 °F 19.8 °F 23.0 °F 75% 30.23 in 10.0 mi North 13.8 mph 17.3 mph N/A   Overcast
7:15 PM 30.2 °F 20.8 °F 23.0 °F 75% 30.24 in 10.0 mi NNE 11.5 mph 16.1 mph N/A   Overcast
7:35 PM 28.4 °F 17.5 °F 23.0 °F 80% 30.25 in 10.0 mi North 13.8 mph - N/A   Overcast
7:55 PM 28.4 °F 17.5 °F 21.2 °F 74% 30.25 in 10.0 mi North 13.8 mph 18.4 mph N/A   Overcast
8:15 PM 28.4 °F 18.5 °F 21.2 °F 74% 30.25 in 10.0 mi North 11.5 mph 17.3 mph N/A   Overcast
8:35 PM 28.4 °F 17.5 °F 21.2 °F 74% 30.25 in 10.0 mi North 13.8 mph - N/A   Overcast
8:55 PM 28.4 °F 19.7 °F 21.2 °F 74% 30.26 in 10.0 mi North 9.2 mph - N/A   Overcast
9:15 PM 28.4 °F 18.5 °F 21.2 °F 74% 30.26 in 10.0 mi North 11.5 mph - N/A   Overcast
9:35 PM 28.4 °F 17.5 °F 21.2 °F 74% 30.26 in 10.0 mi North 13.8 mph 18.4 mph N/A   Overcast
9:55 PM 28.4 °F 18.0 °F 21.2 °F 74% 30.26 in 10.0 mi NNE 12.7 mph 19.6 mph N/A   Overcast
10:15 PM 28.4 °F 17.5 °F 21.2 °F 74% 30.25 in 10.0 mi North 13.8 mph 18.4 mph N/A   Overcast
10:35 PM 28.4 °F 19.1 °F 21.2 °F 74% 30.25 in 10.0 mi NNE 10.4 mph - N/A   Overcast
10:55 PM 28.4 °F 19.1 °F 21.2 °F 74% 30.25 in 10.0 mi North 10.4 mph 16.1 mph N/A   Overcast
11:15 PM 28.4 °F 16.6 °F 21.2 °F 74% 30.25 in 10.0 mi North 16.1 mph 19.6 mph N/A   Overcast
11:35 PM 28.4 °F 18.5 °F 21.2 °F 74% 30.26 in 10.0 mi North 11.5 mph - N/A   Overcast
11:55 PM 28.4 °F 19.7 °F 21.2 °F 74% 30.26 in 10.0 mi NNE 9.2 mph - N/A   Overcast